Time,TemperatureF,DewpointF,PressureIn,WindDirection,WindDirectionDegrees,WindSpeedMPH,WindSpeedGustMPH,Humidity,HourlyPrecipIn,Conditions,Clouds,dailyrainin,SoftwareType,DateUTC
2013-11-07 00:01:00,64.7,51.4,29.91,SSE,158,1.2,4.6,62,0.00,BKN,,0.00,WeatherDisplay:10.37,2013-11-07 05:01:00,
2013-11-07 00:03:00,64.7,51.8,29.91,WSW,248,7.3,12.9,63,0.00,BKN,,0.00,WeatherDisplay:10.37,2013-11-07 05:03:00,
2013-11-07 00:05:00,64.6,53.0,29.91,NW,315,8.2,12.7,66,0.00,BKN,,0.00,WeatherDisplay:10.37,2013-11-07 05:05:00,
2013-11-07 00:07:00,64.2,53.4,29.91,WNW,292,5.5,9.2,68,0.00,BKN,,0.00,WeatherDisplay:10.37,2013-11-07 05:07:00,
2013-11-07 00:08:00,64.2,54.2,29.91,West,270,4.4,8.1,70,0.00,BKN,,0.00,WeatherDisplay:10.37,2013-11-07 05:08:00,
2013-11-07 00:09:00,64.0,54.4,29.91,NW,315,6.9,8.7,71,0.00,BKN,,0.00,WeatherDisplay:10.37,2013-11-07 05:09:00,
2013-11-07 00:14:00,63.5,55.1,29.91,WSW,248,5.9,11.5,74,0.00,BKN,,0.00,WeatherDisplay:10.37,2013-11-07 05:14:00,
2013-11-07 00:16:00,63.3,55.3,29.91,WSW,248,6.4,7.8,75,0.00,BKN,,0.00,WeatherDisplay:10.37,2013-11-07 05:16:00,
2013-11-07 00:21:00,62.8,55.5,29.91,SW,225,4.2,6.9,77,0.00,BKN,,0.00,WeatherDisplay:10.37,2013-11-07 05:21:00,
2013-11-07 00:26:00,62.6,55.7,29.92,West,270,3.4,6.9,78,0.00,BKN,,0.00,WeatherDisplay:10.37,2013-11-07 05:26:00,
2013-11-07 00:31:00,62.2,56.0,29.92,WSW,248,4.0,6.1,80,0.00,BKN,,0.00,WeatherDisplay:10.37,2013-11-07 05:31:00,
2013-11-07 00:36:00,62.2,56.3,29.92,NNW,338,1.4,5.8,81,0.00,BKN,,0.00,WeatherDisplay:10.37,2013-11-07 05:36:00,
2013-11-07 00:41:00,61.9,56.0,29.91,SW,225,1.6,4.6,81,0.00,BKN,,0.00,WeatherDisplay:10.37,2013-11-07 05:41:00,
2013-11-07 00:46:00,61.7,56.2,29.91,SW,225,1.3,2.3,82,0.00,BKN,,0.00,WeatherDisplay:10.37,2013-11-07 05:46:00,
2013-11-07 00:51:00,61.3,56.1,29.91,North,360,0.5,2.3,83,0.00,BKN,,0.00,WeatherDisplay:10.37,2013-11-07 05:51:00,
2013-11-07 00:56:00,61.1,56.2,29.91,SW,225,0.0,4.6,84,0.00,BKN,,0.00,WeatherDisplay:10.37,2013-11-07 05:56:00,
2013-11-07 01:01:00,61.1,56.2,29.91,SW,225,0.0,0.0,84,0.00,BKN,,0.00,WeatherDisplay:10.37,2013-11-07 06:01:00,
2013-11-07 01:06:00,60.8,56.3,29.91,SW,225,3.8,4.6,85,0.00,BKN,,0.00,WeatherDisplay:10.37,2013-11-07 06:06:00,
2013-11-07 01:11:00,60.8,56.6,29.91,West,270,1.0,4.6,86,0.00,BKN,,0.00,WeatherDisplay:10.37,2013-11-07 06:11:00,
2013-11-07 01:16:00,60.4,56.5,29.91,WSW,248,5.2,7.0,87,0.00,BKN,,0.00,WeatherDisplay:10.37,2013-11-07 06:16:00,
2013-11-07 01:21:00,60.2,56.7,29.91,WSW,248,2.9,6.1,88,0.00,BKN,,0.00,WeatherDisplay:10.37,2013-11-07 06:21:00,
2013-11-07 01:26:00,60.1,56.9,29.90,WSW,248,0.0,2.3,89,0.00,BKN,,0.00,WeatherDisplay:10.37,2013-11-07 06:26:00,
2013-11-07 01:31:00,59.7,56.5,29.90,WNW,292,0.0,6.9,89,0.00,BKN,,0.00,WeatherDisplay:10.37,2013-11-07 06:31:00,
2013-11-07 01:36:00,59.5,56.6,29.90,WNW,292,0.9,4.4,90,0.00,BKN,,0.00,WeatherDisplay:10.37,2013-11-07 06:36:00,
2013-11-07 01:41:00,59.3,56.7,29.90,West,270,2.5,4.6,91,0.00,BKN,,0.00,WeatherDisplay:10.37,2013-11-07 06:41:00,
2013-11-07 01:46:00,59.2,56.9,29.90,SW,225,0.0,2.3,92,0.00,BKN,,0.00,WeatherDisplay:10.37,2013-11-07 06:46:00,
2013-11-07 01:51:00,58.8,57.1,29.90,SW,225,1.3,3.5,94,0.00,BKN,,0.00,WeatherDisplay:10.37,2013-11-07 06:51:00,
2013-11-07 01:56:00,58.6,57.2,29.90,SW,225,0.0,0.0,95,0.00,BKN,,0.00,WeatherDisplay:10.37,2013-11-07 06:56:00,
2013-11-07 02:01:00,58.4,57.0,29.90,SW,225,0.0,0.0,95,0.00,BKN,,0.00,WeatherDisplay:10.37,2013-11-07 07:01:00,
2013-11-07 02:06:00,58.3,57.2,29.89,SW,225,0.0,0.0,96,0.00,BKN,,0.00,WeatherDisplay:10.37,2013-11-07 07:06:00,
2013-11-07 02:11:00,58.1,57.0,29.89,SW,225,0.0,0.0,96,0.00,BKN,,0.00,WeatherDisplay:10.37,2013-11-07 07:11:00,
2013-11-07 02:16:00,58.1,57.3,29.88,SW,225,0.0,0.0,97,0.01,RA,,0.01,WeatherDisplay:10.37,2013-11-07 07:16:00,
2013-11-07 02:21:00,57.9,57.4,29.88,SW,225,0.0,0.0,98,0.01,RA,,0.01,WeatherDisplay:10.37,2013-11-07 07:21:00,
2013-11-07 02:26:00,57.7,57.2,29.88,SW,225,0.0,0.0,98,0.01,RA,,0.01,WeatherDisplay:10.37,2013-11-07 07:26:00,
2013-11-07 02:31:00,57.7,57.4,29.88,SW,225,0.0,0.0,99,0.01,BKN,,0.01,WeatherDisplay:10.37,2013-11-07 07:31:00,
2013-11-07 02:36:00,57.5,57.2,29.88,SW,225,0.0,0.0,99,0.02,RA,,0.02,WeatherDisplay:10.37,2013-11-07 07:36:00,
2013-11-07 02:41:00,57.5,57.5,29.88,SW,225,0.0,0.0,100,0.02,RA,,0.02,WeatherDisplay:10.37,2013-11-07 07:41:00,
2013-11-07 02:46:00,57.4,57.4,29.88,SW,225,0.0,0.0,100,0.02,RA,,0.02,WeatherDisplay:10.37,2013-11-07 07:46:00,
2013-11-07 02:51:00,57.4,57.4,29.88,SW,225,0.0,0.0,100,0.02,BKN,,0.02,WeatherDisplay:10.37,2013-11-07 07:51:00,
2013-11-07 02:56:00,57.4,57.4,29.88,SW,225,0.1,3.5,100,0.03,RA,,0.03,WeatherDisplay:10.37,2013-11-07 07:56:00,
2013-11-07 03:01:00,57.4,57.4,29.88,SW,225,0.0,0.0,100,0.04,RA,,0.05,WeatherDisplay:10.37,2013-11-07 08:01:00,
2013-11-07 03:06:00,57.2,57.2,29.87,SW,225,0.0,0.0,100,0.06,RA,,0.06,WeatherDisplay:10.37,2013-11-07 08:06:00,
2013-11-07 03:11:00,57.2,57.2,29.87,SW,225,0.0,0.0,100,0.06,RA,,0.06,WeatherDisplay:10.37,2013-11-07 08:11:00,
2013-11-07 03:16:00,57.2,57.2,29.86,SW,225,2.9,3.6,100,0.05,RA,,0.06,WeatherDisplay:10.37,2013-11-07 08:16:00,
2013-11-07 03:21:00,57.2,57.2,29.86,SSE,158,3.6,5.8,100,0.06,RA,,0.07,WeatherDisplay:10.37,2013-11-07 08:21:00,
2013-11-07 03:26:00,57.2,57.2,29.86,SSE,158,1.2,2.7,100,0.06,RA,,0.07,WeatherDisplay:10.37,2013-11-07 08:26:00,
2013-11-07 03:31:00,57.0,57.0,29.86,SSW,202,3.4,4.6,100,0.08,RA,,0.09,WeatherDisplay:10.37,2013-11-07 08:31:00,
2013-11-07 03:36:00,57.0,57.0,29.86,SSW,202,2.5,4.6,100,0.08,RA,,0.10,WeatherDisplay:10.37,2013-11-07 08:36:00,
2013-11-07 03:41:00,57.0,57.0,29.86,SSW,202,3.5,4.6,100,0.11,RA,,0.14,WeatherDisplay:10.37,2013-11-07 08:41:00,
2013-11-07 03:46:00,57.0,57.0,29.86,South,180,2.3,5.8,100,0.13,RA,,0.15,WeatherDisplay:10.37,2013-11-07 08:46:00,
2013-11-07 03:51:00,56.8,56.8,29.86,South,180,3.7,6.1,100,0.13,RA,,0.15,WeatherDisplay:10.37,2013-11-07 08:51:00,
2013-11-07 03:56:00,56.6,56.6,29.86,South,180,2.7,4.6,100,0.13,RA,,0.16,WeatherDisplay:10.37,2013-11-07 08:56:00,
2013-11-07 04:01:00,56.6,56.6,29.87,South,180,3.0,4.6,100,0.13,RA,,0.17,WeatherDisplay:10.37,2013-11-07 09:01:00,
2013-11-07 04:06:00,56.6,56.6,29.87,NW,315,2.9,5.8,100,0.14,RA,,0.21,WeatherDisplay:10.37,2013-11-07 09:06:00,
2013-11-07 04:11:00,56.8,56.8,29.87,WNW,292,2.4,4.6,100,0.19,RA,,0.25,WeatherDisplay:10.37,2013-11-07 09:11:00,
2013-11-07 04:16:00,56.8,56.8,29.88,SSW,202,3.6,5.8,100,0.21,RA,,0.28,WeatherDisplay:10.37,2013-11-07 09:16:00,
2013-11-07 04:21:00,56.8,56.8,29.88,WSW,248,2.3,10.4,100,0.23,RA,,0.30,WeatherDisplay:10.37,2013-11-07 09:21:00,
2013-11-07 04:26:00,56.6,56.6,29.88,SW,225,2.9,8.1,100,0.24,RA,,0.31,WeatherDisplay:10.37,2013-11-07 09:26:00,
2013-11-07 04:31:00,56.6,56.6,29.88,SW,225,0.2,3.5,100,0.22,RA,,0.31,WeatherDisplay:10.37,2013-11-07 09:31:00,
2013-11-07 04:36:00,56.5,56.5,29.88,SW,225,2.5,6.9,100,0.22,RA,,0.32,WeatherDisplay:10.37,2013-11-07 09:36:00,
2013-11-07 04:41:00,56.5,56.5,29.88,SW,225,0.0,2.3,100,0.19,RA,,0.33,WeatherDisplay:10.37,2013-11-07 09:41:00,
2013-11-07 04:46:00,56.3,56.3,29.88,SW,225,1.0,3.6,100,0.18,RA,,0.33,WeatherDisplay:10.37,2013-11-07 09:46:00,
2013-11-07 04:51:00,56.1,56.1,29.88,ESE,112,0.3,4.6,100,0.20,RA,,0.35,WeatherDisplay:10.37,2013-11-07 09:51:00,
2013-11-07 04:56:00,56.1,56.1,29.88,ESE,112,3.2,3.6,100,0.20,RA,,0.37,WeatherDisplay:10.37,2013-11-07 09:56:00,
2013-11-07 05:01:00,55.9,55.9,29.88,ENE,68,2.4,5.8,100,0.21,RA,,0.38,WeatherDisplay:10.37,2013-11-07 10:01:00,
2013-11-07 05:06:00,55.7,55.7,29.88,ENE,68,3.0,4.4,100,0.19,RA,,0.39,WeatherDisplay:10.37,2013-11-07 10:06:00,
2013-11-07 05:11:00,55.0,55.0,29.88,NNE,22,10.8,20.5,100,0.15,RA,,0.41,WeatherDisplay:10.37,2013-11-07 10:11:00,
2013-11-07 05:16:00,53.2,52.7,29.90,NNE,22,8.6,11.5,98,0.14,RA,,0.41,WeatherDisplay:10.37,2013-11-07 10:16:00,
2013-11-07 05:21:00,52.1,51.3,29.90,NE,45,11.0,19.6,97,0.13,RA,,0.43,WeatherDisplay:10.37,2013-11-07 10:21:00,
2013-11-07 05:26:00,51.6,50.8,29.90,West,270,6.0,13.8,97,0.12,RA,,0.44,WeatherDisplay:10.37,2013-11-07 10:26:00,
2013-11-07 05:31:00,51.1,50.3,29.90,NNE,22,7.7,11.5,97,0.13,RA,,0.44,WeatherDisplay:10.37,2013-11-07 10:31:00,
2013-11-07 05:36:00,50.9,50.1,29.90,NW,315,6.3,8.1,97,0.12,RA,,0.44,WeatherDisplay:10.37,2013-11-07 10:36:00,
2013-11-07 05:41:00,50.7,49.9,29.91,NNW,338,6.2,9.5,97,0.12,RA,,0.44,WeatherDisplay:10.37,2013-11-07 10:41:00,
2013-11-07 05:46:00,50.5,49.7,29.91,NNW,338,3.5,4.4,97,0.12,RA,,0.45,WeatherDisplay:10.37,2013-11-07 10:46:00,
2013-11-07 05:51:00,50.3,49.5,29.92,North,360,2.8,9.2,97,0.10,RA,,0.45,WeatherDisplay:10.37,2013-11-07 10:51:00,
2013-11-07 05:56:00,50.3,49.8,29.92,NNW,338,3.2,4.6,98,0.09,RA,,0.45,WeatherDisplay:10.37,2013-11-07 10:56:00,
2013-11-07 06:01:00,50.0,49.5,29.92,WSW,248,5.4,8.1,98,0.08,RA,,0.46,WeatherDisplay:10.37,2013-11-07 11:01:00,
2013-11-07 06:06:00,50.0,49.5,29.93,WSW,248,4.4,4.6,98,0.07,RA,,0.46,WeatherDisplay:10.37,2013-11-07 11:06:00,
2013-11-07 06:11:00,49.4,48.9,29.93,NW,315,6.6,11.5,98,0.07,RA,,0.47,WeatherDisplay:10.37,2013-11-07 11:11:00,
2013-11-07 06:16:00,49.3,48.8,29.93,ENE,68,2.3,6.9,98,0.06,RA,,0.47,WeatherDisplay:10.37,2013-11-07 11:16:00,
2013-11-07 06:21:00,49.3,48.8,29.93,ENE,68,1.8,5.8,98,0.05,RA,,0.48,WeatherDisplay:10.37,2013-11-07 11:21:00,
2013-11-07 06:26:00,49.1,48.6,29.94,NNW,338,3.5,9.2,98,0.06,RA,,0.49,WeatherDisplay:10.37,2013-11-07 11:26:00,
2013-11-07 06:31:00,49.1,48.6,29.94,WSW,248,3.3,4.6,98,0.05,-RA,,0.49,WeatherDisplay:10.37,2013-11-07 11:31:00,
2013-11-07 06:35:00,48.9,48.4,29.94,WSW,248,0.0,2.3,98,0.06,-RA,,0.50,WeatherDisplay:10.37,2013-11-07 11:35:00,
2013-11-07 06:40:00,48.7,48.2,29.95,WSW,248,0.0,0.0,98,0.06,-RA,,0.50,WeatherDisplay:10.37,2013-11-07 11:40:00,
2013-11-07 06:45:00,48.7,48.2,29.95,WSW,248,0.0,0.0,98,0.06,-RA,,0.51,WeatherDisplay:10.37,2013-11-07 11:45:00,
2013-11-07 06:50:00,48.7,48.2,29.93,WSW,248,0.3,4.4,98,0.06,-RA,,0.51,WeatherDisplay:10.37,2013-11-07 11:50:00,
2013-11-07 06:55:00,48.7,48.2,29.93,WSW,248,0.0,0.0,98,0.06,-RA,,0.52,WeatherDisplay:10.37,2013-11-07 11:55:00,
2013-11-07 07:00:00,48.4,48.2,29.93,NE,45,1.8,8.1,99,0.06,-RA,,0.52,WeatherDisplay:10.37,2013-11-07 12:00:00,
2013-11-07 07:05:00,48.4,47.9,29.93,NE,45,0.0,2.3,98,0.07,-RA,,0.53,WeatherDisplay:10.37,2013-11-07 12:05:00,
2013-11-07 07:10:00,48.4,47.9,29.93,NE,45,0.8,2.3,98,0.06,-RA,,0.53,WeatherDisplay:10.37,2013-11-07 12:10:00,
2013-11-07 07:15:00,48.2,48.0,29.95,West,270,2.7,4.6,99,0.06,-RA,,0.53,WeatherDisplay:10.37,2013-11-07 12:15:00,
2013-11-07 07:20:00,48.0,47.8,29.95,WNW,292,1.9,3.5,99,0.06,-RA,,0.54,WeatherDisplay:10.37,2013-11-07 12:20:00,
2013-11-07 07:25:00,47.8,47.6,29.95,South,180,0.0,4.6,99,0.05,-RA,,0.54,WeatherDisplay:10.37,2013-11-07 12:25:00,
2013-11-07 07:30:00,47.8,47.6,29.94,SSW,202,4.5,5.3,99,0.06,-RA,,0.55,WeatherDisplay:10.37,2013-11-07 12:30:00,
2013-11-07 07:35:00,47.6,47.4,29.94,NNW,338,2.5,4.6,99,0.06,-RA,,0.56,WeatherDisplay:10.37,2013-11-07 12:35:00,
2013-11-07 07:40:00,47.5,47.3,29.96,NNW,338,2.2,4.6,99,0.06,-RA,,0.56,WeatherDisplay:10.37,2013-11-07 12:40:00,
2013-11-07 07:45:00,47.5,47.3,29.96,WNW,292,0.0,4.6,99,0.05,-RA,,0.56,WeatherDisplay:10.37,2013-11-07 12:45:00,
2013-11-07 07:50:00,47.5,47.5,29.96,WNW,292,0.0,0.0,100,0.05,-RA,,0.56,WeatherDisplay:10.37,2013-11-07 12:50:00,
2013-11-07 07:55:00,47.5,47.5,29.96,West,270,4.2,5.3,100,0.05,-RA,,0.56,WeatherDisplay:10.37,2013-11-07 12:55:00,
2013-11-07 08:00:00,47.3,47.3,29.96,WSW,248,5.2,9.5,100,0.04,-RA,,0.56,WeatherDisplay:10.37,2013-11-07 13:00:00,
2013-11-07 08:05:00,47.1,46.9,29.97,SW,225,5.2,7.8,99,0.03,-RA,,0.56,WeatherDisplay:10.37,2013-11-07 13:05:00,
2013-11-07 08:10:00,46.9,46.7,29.97,NW,315,3.0,6.9,99,0.03,-RA,,0.56,WeatherDisplay:10.37,2013-11-07 13:10:00,
2013-11-07 08:15:00,46.9,46.7,29.98,SSW,202,4.9,6.1,99,0.03,-RA,,0.56,WeatherDisplay:10.37,2013-11-07 13:15:00,
2013-11-07 08:20:00,46.9,46.7,29.98,NW,315,4.1,9.2,99,0.03,-RA,,0.57,WeatherDisplay:10.37,2013-11-07 13:20:00,
2013-11-07 08:25:00,46.7,46.5,29.99,West,270,2.0,5.8,99,0.03,-RA,,0.57,WeatherDisplay:10.37,2013-11-07 13:25:00,
2013-11-07 08:30:00,46.7,46.5,29.99,NW,315,2.0,8.1,99,0.02,-RA,,0.57,WeatherDisplay:10.37,2013-11-07 13:30:00,
2013-11-07 08:35:00,46.6,46.4,29.99,WSW,248,5.7,8.1,99,0.01,-RA,,0.57,WeatherDisplay:10.37,2013-11-07 13:35:00,
2013-11-07 08:40:00,46.6,46.4,29.98,West,270,6.9,10.4,99,0.01,-RA,,0.57,WeatherDisplay:10.37,2013-11-07 13:40:00,
2013-11-07 08:45:00,46.4,46.2,29.98,NNE,22,9.6,12.9,99,0.01,-RA,,0.57,WeatherDisplay:10.37,2013-11-07 13:45:00,
2013-11-07 08:50:00,46.4,46.2,29.98,WSW,248,3.7,5.8,99,0.01,-RA,,0.57,WeatherDisplay:10.37,2013-11-07 13:50:00,
2013-11-07 08:55:00,46.4,46.2,29.98,NNW,338,4.7,7.0,99,0.01,-RA,,0.57,WeatherDisplay:10.37,2013-11-07 13:55:00,
2013-11-07 09:00:00,45.7,45.5,29.98,NNE,22,9.5,12.1,99,0.01,-RA,,0.57,WeatherDisplay:10.37,2013-11-07 14:00:00,
2013-11-07 09:05:00,45.5,45.3,29.99,NW,315,6.1,7.0,99,0.02,-RA,,0.58,WeatherDisplay:10.37,2013-11-07 14:05:00,
2013-11-07 09:10:00,45.1,44.9,29.99,North,360,6.3,12.7,99,0.02,-RA,,0.58,WeatherDisplay:10.37,2013-11-07 14:10:00,
2013-11-07 09:15:00,44.9,44.7,30.00,WNW,292,6.2,15.0,99,0.02,-RA,,0.58,WeatherDisplay:10.37,2013-11-07 14:15:00,
2013-11-07 09:20:00,44.9,44.7,30.00,NW,315,4.1,5.8,99,0.01,-RA,,0.58,WeatherDisplay:10.37,2013-11-07 14:20:00,
2013-11-07 09:25:00,44.9,44.9,30.00,North,360,5.2,6.1,100,0.01,-RA,,0.58,WeatherDisplay:10.37,2013-11-07 14:25:00,
2013-11-07 09:30:00,44.9,44.9,30.00,NNE,22,10.4,10.4,100,0.01,-RA,,0.58,WeatherDisplay:10.37,2013-11-07 14:30:00,
2013-11-07 09:35:00,44.9,44.9,30.00,NNE,22,10.4,10.4,100,0.01,-RA,,0.58,WeatherDisplay:10.37,2013-11-07 14:35:00,
2013-11-07 09:40:00,44.9,44.9,30.00,NNE,22,10.4,10.4,100,0.01,-RA,,0.58,WeatherDisplay:10.37,2013-11-07 14:40:00,
2013-11-07 09:45:00,44.9,44.9,30.00,NNE,22,10.4,10.4,100,0.01,-RA,,0.58,WeatherDisplay:10.37,2013-11-07 14:45:00,
2013-11-07 09:50:00,44.9,44.9,30.00,NNE,22,10.4,10.4,100,0.01,-RA,,0.58,WeatherDisplay:10.37,2013-11-07 14:50:00,
2013-11-07 09:55:00,44.9,44.9,30.00,NNE,22,10.4,10.4,100,0.01,-RA,,0.58,WeatherDisplay:10.37,2013-11-07 14:55:00,
2013-11-07 10:00:00,44.9,44.9,30.00,NNE,22,10.4,10.4,100,0.01,-RA,,0.58,WeatherDisplay:10.37,2013-11-07 15:00:00,
2013-11-07 10:05:00,44.9,44.9,30.00,NNE,22,10.4,10.4,100,0.00,OVC,,0.58,WeatherDisplay:10.37,2013-11-07 15:05:00,
2013-11-07 10:10:00,44.9,44.9,30.00,NNE,22,10.4,10.4,100,0.00,OVC,,0.58,WeatherDisplay:10.37,2013-11-07 15:10:00,
2013-11-07 10:15:00,44.9,44.9,30.00,NNE,22,10.4,10.4,100,0.00,OVC,,0.58,WeatherDisplay:10.37,2013-11-07 15:15:00,
2013-11-07 10:20:00,44.9,44.9,30.00,NNE,22,10.4,10.4,100,0.00,OVC,,0.58,WeatherDisplay:10.37,2013-11-07 15:20:00,
2013-11-07 10:25:00,44.9,44.9,30.00,NNE,22,10.4,10.4,100,0.00,OVC,,0.58,WeatherDisplay:10.37,2013-11-07 15:25:00,
2013-11-07 10:30:00,44.9,44.9,30.00,NNE,22,10.4,10.4,100,0.00,OVC,,0.58,WeatherDisplay:10.37,2013-11-07 15:30:00,
2013-11-07 10:35:00,44.9,44.9,30.00,NNE,22,10.4,10.4,100,0.00,OVC,,0.58,WeatherDisplay:10.37,2013-11-07 15:35:00,
2013-11-07 10:40:00,44.9,44.9,30.00,NNE,22,10.4,10.4,100,0.00,OVC,,0.58,WeatherDisplay:10.37,2013-11-07 15:40:00,
2013-11-07 10:45:00,44.9,44.9,30.00,NNE,22,10.4,10.4,100,0.00,OVC,,0.58,WeatherDisplay:10.37,2013-11-07 15:45:00,
2013-11-07 10:50:00,44.9,44.9,30.00,NNE,22,10.4,10.4,100,0.00,OVC,,0.58,WeatherDisplay:10.37,2013-11-07 15:50:00,
2013-11-07 10:55:00,44.9,44.9,30.00,NNE,22,10.4,10.4,100,0.00,OVC,,0.58,WeatherDisplay:10.37,2013-11-07 15:55:00,
2013-11-07 11:00:00,44.9,44.9,30.00,NNE,22,10.4,10.4,100,0.00,OVC,,0.58,WeatherDisplay:10.37,2013-11-07 16:00:00,
2013-11-07 11:05:00,44.9,44.9,30.00,NNE,22,10.4,10.4,100,0.00,BKN,,0.58,WeatherDisplay:10.37,2013-11-07 16:05:00,
2013-11-07 11:10:00,44.9,44.9,30.00,NNE,22,10.4,10.4,100,0.00,BKN,,0.58,WeatherDisplay:10.37,2013-11-07 16:10:00,
2013-11-07 11:15:00,44.9,44.9,30.00,NNE,22,10.4,10.4,100,0.00,BKN,,0.58,WeatherDisplay:10.37,2013-11-07 16:15:00,
2013-11-07 11:20:00,44.9,44.9,30.00,NNE,22,10.4,10.4,100,0.00,BKN,,0.58,WeatherDisplay:10.37,2013-11-07 16:20:00,
2013-11-07 11:25:00,44.9,44.9,30.00,NNE,22,10.4,10.4,100,0.00,BKN,,0.58,WeatherDisplay:10.37,2013-11-07 16:25:00,
2013-11-07 11:30:00,44.9,44.9,30.00,NNE,22,10.4,10.4,100,0.00,BKN,,0.58,WeatherDisplay:10.37,2013-11-07 16:30:00,
2013-11-07 11:35:00,44.9,44.9,30.00,NNE,22,10.4,10.4,100,0.00,BKN,,0.58,WeatherDisplay:10.37,2013-11-07 16:35:00,
2013-11-07 11:40:00,44.9,44.9,30.00,NNE,22,10.4,10.4,100,0.00,BKN,,0.58,WeatherDisplay:10.37,2013-11-07 16:40:00,
2013-11-07 11:45:00,44.9,44.9,30.00,NNE,22,10.4,10.4,100,0.00,BKN,,0.58,WeatherDisplay:10.37,2013-11-07 16:45:00,
2013-11-07 11:50:00,44.9,44.9,30.00,NNE,22,10.4,10.4,100,0.00,BKN,,0.58,WeatherDisplay:10.37,2013-11-07 16:50:00,
2013-11-07 11:55:00,44.9,44.9,30.00,NNE,22,10.4,10.4,100,0.00,BKN,,0.58,WeatherDisplay:10.37,2013-11-07 16:55:00,
2013-11-07 12:00:00,44.9,44.9,30.00,NNE,22,10.4,10.4,100,0.00,BKN,,0.58,WeatherDisplay:10.37,2013-11-07 17:00:00,
2013-11-07 12:05:00,44.9,44.9,30.00,NNE,22,10.4,10.4,100,0.00,-RA,,0.58,WeatherDisplay:10.37,2013-11-07 17:05:00,
2013-11-07 12:10:00,44.9,44.9,30.00,NNE,22,10.4,10.4,100,0.00,-RA,,0.58,WeatherDisplay:10.37,2013-11-07 17:10:00,
2013-11-07 12:15:00,44.9,44.9,30.00,NNE,22,10.4,10.4,100,0.00,-RA,,0.58,WeatherDisplay:10.37,2013-11-07 17:15:00,
2013-11-07 12:20:00,44.9,44.9,30.00,NNE,22,10.4,10.4,100,0.00,-RA,,0.58,WeatherDisplay:10.37,2013-11-07 17:20:00,
2013-11-07 12:25:00,44.9,44.9,30.00,NNE,22,10.4,10.4,100,0.00,-RA,,0.58,WeatherDisplay:10.37,2013-11-07 17:25:00,
2013-11-07 12:30:00,44.9,44.9,30.00,NNE,22,10.4,10.4,100,0.00,-RA,,0.58,WeatherDisplay:10.37,2013-11-07 17:30:00,
2013-11-07 12:35:00,44.9,44.9,30.00,NNE,22,10.4,10.4,100,0.00,-RA,,0.58,WeatherDisplay:10.37,2013-11-07 17:35:00,
2013-11-07 12:40:00,44.9,44.9,30.00,NNE,22,10.4,10.4,100,0.00,-RA,,0.58,WeatherDisplay:10.37,2013-11-07 17:40:00,
2013-11-07 12:45:00,44.9,44.9,30.00,NNE,22,10.4,10.4,100,0.00,-RA,,0.58,WeatherDisplay:10.37,2013-11-07 17:45:00,
2013-11-07 12:50:00,44.9,44.9,30.00,NNE,22,10.4,10.4,100,0.00,-RA,,0.58,WeatherDisplay:10.37,2013-11-07 17:50:00,
2013-11-07 12:55:00,44.9,44.9,30.00,NNE,22,10.4,10.4,100,0.00,-RA,,0.58,WeatherDisplay:10.37,2013-11-07 17:55:00,
2013-11-07 12:58:00,44.9,44.9,30.00,NNE,22,10.4,10.4,100,0.00,-RA,,0.58,WeatherDisplay:10.37,2013-11-07 17:58:00,
2013-11-07 13:03:00,44.9,44.9,30.00,NNE,22,10.4,10.4,100,0.00,-DZ,,0.58,WeatherDisplay:10.37,2013-11-07 18:03:00,
2013-11-07 13:08:00,44.9,44.9,30.00,NNE,22,10.4,10.4,100,0.00,-DZ,,0.58,WeatherDisplay:10.37,2013-11-07 18:08:00,
2013-11-07 13:13:00,44.9,44.9,30.00,NNE,22,10.4,10.4,100,0.00,-DZ,,0.58,WeatherDisplay:10.37,2013-11-07 18:13:00,
2013-11-07 13:18:00,44.9,44.9,30.00,NNE,22,10.4,10.4,100,0.00,-DZ,,0.58,WeatherDisplay:10.37,2013-11-07 18:18:00,
2013-11-07 13:23:00,44.9,44.9,30.00,NNE,22,10.4,10.4,100,0.00,-DZ,,0.58,WeatherDisplay:10.37,2013-11-07 18:23:00,
2013-11-07 13:28:00,44.9,44.9,30.00,NNE,22,10.4,10.4,100,0.00,-DZ,,0.58,WeatherDisplay:10.37,2013-11-07 18:28:00,
2013-11-07 13:33:00,44.9,44.9,30.00,NNE,22,10.4,10.4,100,0.00,-DZ,,0.58,WeatherDisplay:10.37,2013-11-07 18:33:00,
2013-11-07 13:38:00,44.9,44.9,30.00,NNE,22,10.4,10.4,100,0.00,-DZ,,0.58,WeatherDisplay:10.37,2013-11-07 18:38:00,
2013-11-07 13:43:00,44.9,44.9,30.00,NNE,22,10.4,10.4,100,0.00,-DZ,,0.58,WeatherDisplay:10.37,2013-11-07 18:43:00,
2013-11-07 13:48:00,44.9,44.9,30.00,NNE,22,10.4,10.4,100,0.00,-DZ,,0.58,WeatherDisplay:10.37,2013-11-07 18:48:00,
2013-11-07 13:53:00,44.9,44.9,30.00,NNE,22,10.4,10.4,100,0.00,-DZ,,0.58,WeatherDisplay:10.37,2013-11-07 18:53:00,
2013-11-07 13:58:00,44.9,44.9,30.00,NNE,22,10.4,10.4,100,0.00,-DZ,,0.58,WeatherDisplay:10.37,2013-11-07 18:58:00,
2013-11-07 14:03:00,44.9,44.9,30.00,NNE,22,10.4,10.4,100,0.00,-RA,,0.58,WeatherDisplay:10.37,2013-11-07 19:03:00,
2013-11-07 14:08:00,44.9,44.9,30.00,NNE,22,10.4,10.4,100,0.00,-RA,,0.58,WeatherDisplay:10.37,2013-11-07 19:08:00,
2013-11-07 14:13:00,44.9,44.9,30.00,NNE,22,10.4,10.4,100,0.00,-RA,,0.58,WeatherDisplay:10.37,2013-11-07 19:13:00,
2013-11-07 14:18:00,44.9,44.9,30.00,NNE,22,10.4,10.4,100,0.00,-RA,,0.58,WeatherDisplay:10.37,2013-11-07 19:18:00,
2013-11-07 14:23:00,44.9,44.9,30.00,NNE,22,10.4,10.4,100,0.00,-RA,,0.58,WeatherDisplay:10.37,2013-11-07 19:23:00,
2013-11-07 14:28:00,44.9,44.9,30.00,NNE,22,10.4,10.4,100,0.00,-RA,,0.58,WeatherDisplay:10.37,2013-11-07 19:28:00,
2013-11-07 14:33:00,44.9,44.9,30.00,NNE,22,10.4,10.4,100,0.00,-RA,,0.58,WeatherDisplay:10.37,2013-11-07 19:33:00,
2013-11-07 14:38:00,44.9,44.9,30.00,NNE,22,10.4,10.4,100,0.00,-RA,,0.58,WeatherDisplay:10.37,2013-11-07 19:38:00,
2013-11-07 14:43:00,44.9,44.9,30.00,NNE,22,10.4,10.4,100,0.00,-RA,,0.58,WeatherDisplay:10.37,2013-11-07 19:43:00,
2013-11-07 14:48:00,44.9,44.9,30.00,NNE,22,10.4,10.4,100,0.00,-RA,,0.58,WeatherDisplay:10.37,2013-11-07 19:48:00,
2013-11-07 14:53:00,44.9,44.9,30.00,NNE,22,10.4,10.4,100,0.00,-RA,,0.58,WeatherDisplay:10.37,2013-11-07 19:53:00,
2013-11-07 14:58:00,44.9,44.9,30.00,NNE,22,10.4,10.4,100,0.00,-RA,,0.58,WeatherDisplay:10.37,2013-11-07 19:58:00,
2013-11-07 15:03:00,44.9,44.9,30.00,NNE,22,10.4,10.4,100,0.00,OVC,,0.58,WeatherDisplay:10.37,2013-11-07 20:03:00,
2013-11-07 15:08:00,44.9,44.9,30.00,NNE,22,10.4,10.4,100,0.00,OVC,,0.58,WeatherDisplay:10.37,2013-11-07 20:08:00,
2013-11-07 15:13:00,44.9,44.9,30.00,NNE,22,10.4,10.4,100,0.00,OVC,,0.58,WeatherDisplay:10.37,2013-11-07 20:13:00,
2013-11-07 15:18:00,44.9,44.9,30.00,NNE,22,10.4,10.4,100,0.00,OVC,,0.58,WeatherDisplay:10.37,2013-11-07 20:18:00,
2013-11-07 15:23:00,44.9,44.9,30.00,NNE,22,10.4,10.4,100,0.00,OVC,,0.58,WeatherDisplay:10.37,2013-11-07 20:23:00,
2013-11-07 15:28:00,44.9,44.9,30.00,NNE,22,10.4,10.4,100,0.00,OVC,,0.58,WeatherDisplay:10.37,2013-11-07 20:28:00,
2013-11-07 15:33:00,44.9,44.9,30.00,NNE,22,10.4,10.4,100,0.00,OVC,,0.58,WeatherDisplay:10.37,2013-11-07 20:33:00,
2013-11-07 15:38:00,44.9,44.9,30.00,NNE,22,10.4,10.4,100,0.00,OVC,,0.58,WeatherDisplay:10.37,2013-11-07 20:38:00,
2013-11-07 15:43:00,44.9,44.9,30.00,NNE,22,10.4,10.4,100,0.00,OVC,,0.58,WeatherDisplay:10.37,2013-11-07 20:43:00,
2013-11-07 15:48:00,44.9,44.9,30.00,NNE,22,10.4,10.4,100,0.00,OVC,,0.58,WeatherDisplay:10.37,2013-11-07 20:48:00,
2013-11-07 15:53:00,44.9,44.9,30.00,NNE,22,10.4,10.4,100,0.00,OVC,,0.58,WeatherDisplay:10.37,2013-11-07 20:53:00,
2013-11-07 15:58:00,44.9,44.9,30.00,NNE,22,10.4,10.4,100,0.00,OVC,,0.58,WeatherDisplay:10.37,2013-11-07 20:58:00,
2013-11-07 16:03:00,44.9,44.9,30.00,NNE,22,10.4,10.4,100,0.00,BKN,,0.58,WeatherDisplay:10.37,2013-11-07 21:03:00,
2013-11-07 16:08:00,44.9,44.9,30.00,NNE,22,10.4,10.4,100,0.00,BKN,,0.58,WeatherDisplay:10.37,2013-11-07 21:08:00,
2013-11-07 16:13:00,44.9,44.9,30.00,NNE,22,10.4,10.4,100,0.00,BKN,,0.58,WeatherDisplay:10.37,2013-11-07 21:13:00,
2013-11-07 16:18:00,44.9,44.9,30.00,NNE,22,10.4,10.4,100,0.00,BKN,,0.58,WeatherDisplay:10.37,2013-11-07 21:18:00,
2013-11-07 16:23:00,44.9,44.9,30.00,NNE,22,10.4,10.4,100,0.00,BKN,,0.58,WeatherDisplay:10.37,2013-11-07 21:23:00,
2013-11-07 16:28:00,44.9,44.9,30.00,NNE,22,10.4,10.4,100,0.00,BKN,,0.58,WeatherDisplay:10.37,2013-11-07 21:28:00,
2013-11-07 16:33:00,44.9,44.9,30.00,NNE,22,10.4,10.4,100,0.00,BKN,,0.58,WeatherDisplay:10.37,2013-11-07 21:33:00,
2013-11-07 16:38:00,44.9,44.9,30.00,NNE,22,10.4,10.4,100,0.00,BKN,,0.58,WeatherDisplay:10.37,2013-11-07 21:38:00,
2013-11-07 16:43:00,44.9,44.9,30.00,NNE,22,10.4,10.4,100,0.00,BKN,,0.58,WeatherDisplay:10.37,2013-11-07 21:43:00,
2013-11-07 16:48:00,44.9,44.9,30.00,NNE,22,10.4,10.4,100,0.00,BKN,,0.58,WeatherDisplay:10.37,2013-11-07 21:48:00,
2013-11-07 16:53:00,44.9,44.9,30.00,NNE,22,10.4,10.4,100,0.00,BKN,,0.58,WeatherDisplay:10.37,2013-11-07 21:53:00,
2013-11-07 16:58:00,44.9,44.9,30.00,NNE,22,10.4,10.4,100,0.00,BKN,,0.58,WeatherDisplay:10.37,2013-11-07 21:58:00,
2013-11-07 17:03:00,44.9,44.9,30.00,NNE,22,10.4,10.4,100,0.00,BKN,,0.58,WeatherDisplay:10.37,2013-11-07 22:03:00,
2013-11-07 17:08:00,44.9,44.9,30.00,NNE,22,10.4,10.4,100,0.00,BKN,,0.58,WeatherDisplay:10.37,2013-11-07 22:08:00,
2013-11-07 17:13:00,44.9,44.9,30.00,NNE,22,10.4,10.4,100,0.00,BKN,,0.58,WeatherDisplay:10.37,2013-11-07 22:13:00,
2013-11-07 17:18:00,44.9,44.9,30.00,NNE,22,10.4,10.4,100,0.00,BKN,,0.58,WeatherDisplay:10.37,2013-11-07 22:18:00,
2013-11-07 17:23:00,44.9,44.9,30.00,NNE,22,10.4,10.4,100,0.00,BKN,,0.58,WeatherDisplay:10.37,2013-11-07 22:23:00,
2013-11-07 17:28:00,44.9,44.9,30.00,NNE,22,10.4,10.4,100,0.00,BKN,,0.58,WeatherDisplay:10.37,2013-11-07 22:28:00,
2013-11-07 17:33:00,42.6,30.9,30.07,SSW,202,9.6,16.1,63,0.07,RA,,0.65,WeatherDisplay:10.37,2013-11-07 22:33:00,
2013-11-07 17:38:00,42.4,31.1,30.08,West,270,6.8,9.2,64,0.07,RA,,0.65,WeatherDisplay:10.37,2013-11-07 22:38:00,
2013-11-07 17:43:00,42.1,30.8,30.08,NNE,22,7.8,11.5,64,0.07,RA,,0.65,WeatherDisplay:10.37,2013-11-07 22:43:00,
2013-11-07 17:48:00,41.9,29.8,30.08,NNE,22,9.2,12.1,62,0.07,BKN,,0.65,WeatherDisplay:10.37,2013-11-07 22:48:00,
2013-11-07 17:53:00,41.9,29.4,30.09,WNW,292,11.8,21.9,61,0.07,BKN,,0.65,WeatherDisplay:10.37,2013-11-07 22:53:00,
2013-11-07 17:58:00,41.7,28.8,30.09,WSW,248,6.1,16.1,60,0.07,BKN,,0.65,WeatherDisplay:10.37,2013-11-07 22:58:00,
2013-11-07 18:03:00,41.3,28.5,30.10,WNW,292,9.5,12.7,60,0.07,OVC,,0.65,WeatherDisplay:10.37,2013-11-07 23:03:00,
2013-11-07 18:08:00,41.3,28.1,30.10,West,270,12.9,15.4,59,0.07,OVC,,0.65,WeatherDisplay:10.37,2013-11-07 23:08:00,
2013-11-07 18:13:00,41.2,28.0,30.10,West,270,7.7,10.4,59,0.07,OVC,,0.65,WeatherDisplay:10.37,2013-11-07 23:13:00,
2013-11-07 18:18:00,41.2,27.5,30.10,West,270,6.3,9.5,58,0.07,OVC,,0.65,WeatherDisplay:10.37,2013-11-07 23:18:00,
2013-11-07 18:23:00,41.0,27.4,30.10,NNW,338,11.8,17.3,58,0.07,OVC,,0.65,WeatherDisplay:10.37,2013-11-07 23:23:00,
2013-11-07 18:28:00,41.0,27.8,30.11,West,270,6.8,10.4,59,0.07,OVC,,0.65,WeatherDisplay:10.37,2013-11-07 23:28:00,
2013-11-07 18:33:00,40.8,28.4,30.11,SW,225,6.1,9.5,61,0.00,OVC,,0.65,WeatherDisplay:10.37,2013-11-07 23:33:00,
2013-11-07 18:38:00,40.8,28.4,30.12,West,270,1.3,4.4,61,0.00,OVC,,0.65,WeatherDisplay:10.37,2013-11-07 23:38:00,
2013-11-07 18:43:00,40.6,27.4,30.12,NE,45,6.4,9.2,59,0.00,OVC,,0.65,WeatherDisplay:10.37,2013-11-07 23:43:00,
2013-11-07 18:48:00,40.6,27.4,30.12,West,270,5.0,7.0,59,0.00,OVC,,0.65,WeatherDisplay:10.37,2013-11-07 23:48:00,
2013-11-07 18:53:00,40.6,27.8,30.12,NNE,22,3.7,5.3,60,0.00,OVC,,0.65,WeatherDisplay:10.37,2013-11-07 23:53:00,
2013-11-07 18:58:00,40.6,27.4,30.12,WNW,292,1.7,3.5,59,0.00,OVC,,0.65,WeatherDisplay:10.37,2013-11-07 23:58:00,
2013-11-07 19:03:00,40.6,28.2,30.12,WSW,248,5.2,6.1,61,0.00,OVC,,0.65,WeatherDisplay:10.37,2013-11-08 00:03:00,
2013-11-07 19:08:00,40.4,27.6,30.12,WNW,292,6.0,7.0,60,0.00,OVC,,0.65,WeatherDisplay:10.37,2013-11-08 00:08:00,
2013-11-07 19:13:00,40.4,27.6,30.12,South,180,3.8,5.3,60,0.00,OVC,,0.65,WeatherDisplay:10.37,2013-11-08 00:13:00,
2013-11-07 19:18:00,40.4,28.0,30.12,WSW,248,0.3,4.6,61,0.00,OVC,,0.65,WeatherDisplay:10.37,2013-11-08 00:18:00,
2013-11-07 19:23:00,40.3,28.3,30.12,ESE,112,1.5,5.3,62,0.00,OVC,,0.65,WeatherDisplay:10.37,2013-11-08 00:23:00,
2013-11-07 19:28:00,40.3,28.3,30.12,SSW,202,3.3,4.6,62,0.00,OVC,,0.65,WeatherDisplay:10.37,2013-11-08 00:28:00,
2013-11-07 19:33:00,40.3,28.3,30.12,SW,225,5.6,7.0,62,0.00,OVC,,0.65,WeatherDisplay:10.37,2013-11-08 00:33:00,
2013-11-07 19:38:00,40.3,28.7,30.13,SW,225,1.8,5.8,63,0.00,OVC,,0.65,WeatherDisplay:10.37,2013-11-08 00:38:00,
2013-11-07 19:43:00,40.1,28.5,30.13,WSW,248,4.9,7.0,63,0.00,OVC,,0.65,WeatherDisplay:10.37,2013-11-08 00:43:00,
2013-11-07 19:48:00,40.1,28.5,30.13,WSW,248,0.0,2.3,63,0.00,OVC,,0.65,WeatherDisplay:10.37,2013-11-08 00:48:00,
2013-11-07 19:53:00,39.9,29.1,30.12,NW,315,0.0,4.6,65,0.00,OVC,,0.65,WeatherDisplay:10.37,2013-11-08 00:53:00,
2013-11-07 19:58:00,39.9,29.1,30.12,NW,315,0.0,0.0,65,0.00,OVC,,0.65,WeatherDisplay:10.37,2013-11-08 00:58:00,
2013-11-07 20:03:00,39.9,29.5,30.12,NW,315,0.0,0.0,66,0.00,OVC,,0.65,WeatherDisplay:10.37,2013-11-08 01:03:00,
2013-11-07 20:08:00,39.9,29.1,30.12,South,180,1.0,2.3,65,0.00,OVC,,0.65,WeatherDisplay:10.37,2013-11-08 01:08:00,
2013-11-07 20:13:00,39.7,29.3,30.12,WSW,248,3.7,4.6,66,0.00,OVC,,0.65,WeatherDisplay:10.37,2013-11-08 01:13:00,
2013-11-07 20:18:00,39.7,30.0,30.12,SW,225,1.0,2.7,68,0.00,OVC,,0.65,WeatherDisplay:10.37,2013-11-08 01:18:00,
2013-11-07 20:23:00,39.9,29.5,30.12,South,180,3.1,4.6,66,0.00,OVC,,0.65,WeatherDisplay:10.37,2013-11-08 01:23:00,
2013-11-07 20:28:00,39.9,29.1,30.12,South,180,3.5,4.6,65,0.00,OVC,,0.65,WeatherDisplay:10.37,2013-11-08 01:28:00,
2013-11-07 20:33:00,39.7,29.3,30.12,SW,225,3.6,5.8,66,0.00,OVC,,0.65,WeatherDisplay:10.37,2013-11-08 01:33:00,
2013-11-07 20:38:00,39.9,29.1,30.11,South,180,4.1,6.9,65,0.00,OVC,,0.65,WeatherDisplay:10.37,2013-11-08 01:38:00,
2013-11-07 20:43:00,39.9,29.8,30.11,WNW,292,2.8,5.8,67,0.00,OVC,,0.65,WeatherDisplay:10.37,2013-11-08 01:43:00,
2013-11-07 20:48:00,39.7,30.0,30.11,SW,225,1.4,6.9,68,0.00,OVC,,0.65,WeatherDisplay:10.37,2013-11-08 01:48:00,
2013-11-07 20:53:00,39.7,29.7,30.10,South,180,3.5,4.4,67,0.00,OVC,,0.65,WeatherDisplay:10.37,2013-11-08 01:53:00,
2013-11-07 20:58:00,39.7,29.7,30.10,South,180,3.0,4.6,67,0.00,OVC,,0.65,WeatherDisplay:10.37,2013-11-08 01:58:00,
2013-11-07 21:03:00,39.7,29.7,30.11,SSW,202,0.0,2.3,67,0.00,BKN,,0.65,WeatherDisplay:10.37,2013-11-08 02:03:00,
2013-11-07 21:08:00,39.7,29.7,30.11,SW,225,4.2,5.3,67,0.00,BKN,,0.65,WeatherDisplay:10.37,2013-11-08 02:08:00,
2013-11-07 21:13:00,39.5,29.5,30.11,WSW,248,2.7,5.8,67,0.00,BKN,,0.65,WeatherDisplay:10.37,2013-11-08 02:13:00,
2013-11-07 21:18:00,39.5,29.5,30.10,SSW,202,5.1,6.1,67,0.00,BKN,,0.65,WeatherDisplay:10.37,2013-11-08 02:18:00,
2013-11-07 21:23:00,39.4,29.7,30.10,WSW,248,3.8,5.8,68,0.00,BKN,,0.65,WeatherDisplay:10.37,2013-11-08 02:23:00,
2013-11-07 21:28:00,39.5,30.2,30.10,South,180,0.0,0.0,69,0.00,BKN,,0.65,WeatherDisplay:10.37,2013-11-08 02:28:00,
2013-11-07 21:33:00,39.4,29.4,30.10,WSW,248,4.7,6.1,67,0.00,BKN,,0.65,WeatherDisplay:10.37,2013-11-08 02:33:00,
2013-11-07 21:38:00,39.4,29.7,30.10,WSW,248,0.0,2.3,68,0.00,BKN,,0.65,WeatherDisplay:10.37,2013-11-08 02:38:00,
2013-11-07 21:43:00,39.4,29.7,30.10,WSW,248,0.0,0.0,68,0.00,BKN,,0.65,WeatherDisplay:10.37,2013-11-08 02:43:00,
2013-11-07 21:48:00,39.2,29.5,30.10,WSW,248,0.0,0.0,68,0.00,BKN,,0.65,WeatherDisplay:10.37,2013-11-08 02:48:00,
2013-11-07 21:53:00,39.2,29.5,30.11,WSW,248,0.0,0.0,68,0.00,BKN,,0.65,WeatherDisplay:10.37,2013-11-08 02:53:00,
2013-11-07 21:58:00,39.4,30.1,30.11,WSW,248,2.3,4.4,69,0.00,BKN,,0.65,WeatherDisplay:10.37,2013-11-08 02:58:00,
2013-11-07 22:03:00,39.4,29.7,30.10,SW,225,1.8,4.4,68,0.00,BKN,,0.65,WeatherDisplay:10.37,2013-11-08 03:03:00,
2013-11-07 22:08:00,39.5,29.8,30.10,SW,225,2.6,4.4,68,0.00,BKN,,0.65,WeatherDisplay:10.37,2013-11-08 03:08:00,
2013-11-07 22:13:00,39.4,29.7,30.10,SW,225,4.2,5.3,68,0.00,BKN,,0.65,WeatherDisplay:10.37,2013-11-08 03:13:00,
2013-11-07 22:18:00,39.2,30.3,30.10,SW,225,0.0,0.0,70,0.00,BKN,,0.65,WeatherDisplay:10.37,2013-11-08 03:18:00,
2013-11-07 22:23:00,39.4,30.1,30.10,South,180,2.4,5.8,69,0.00,BKN,,0.65,WeatherDisplay:10.37,2013-11-08 03:23:00,
2013-11-07 22:28:00,39.4,30.4,30.10,SSW,202,1.6,3.5,70,0.00,BKN,,0.65,WeatherDisplay:10.37,2013-11-08 03:28:00,
2013-11-07 22:33:00,39.4,30.1,30.10,SSW,202,2.7,5.8,69,0.00,BKN,,0.65,WeatherDisplay:10.37,2013-11-08 03:33:00,
2013-11-07 22:38:00,39.2,29.9,30.09,SSW,202,1.1,3.6,69,0.00,BKN,,0.65,WeatherDisplay:10.37,2013-11-08 03:38:00,
2013-11-07 22:43:00,39.2,30.3,30.09,SSE,158,3.0,4.4,70,0.00,BKN,,0.65,WeatherDisplay:10.37,2013-11-08 03:43:00,
2013-11-07 22:48:00,39.2,30.3,30.09,South,180,3.6,4.4,70,0.00,BKN,,0.65,WeatherDisplay:10.37,2013-11-08 03:48:00,
2013-11-07 22:53:00,39.2,29.9,30.10,WSW,248,2.3,6.9,69,0.00,BKN,,0.65,WeatherDisplay:10.37,2013-11-08 03:53:00,
2013-11-07 22:58:00,39.2,29.9,30.10,West,270,1.0,4.6,69,0.00,BKN,,0.65,WeatherDisplay:10.37,2013-11-08 03:58:00,
2013-11-07 23:03:00,39.2,29.9,30.09,SW,225,3.7,8.7,69,0.00,BKN,,0.65,WeatherDisplay:10.37,2013-11-08 04:03:00,
2013-11-07 23:08:00,39.2,29.9,30.09,SW,225,4.9,6.1,69,0.00,BKN,,0.65,WeatherDisplay:10.37,2013-11-08 04:08:00,
2013-11-07 23:13:00,39.2,29.9,30.09,South,180,4.5,5.8,69,0.00,BKN,,0.65,WeatherDisplay:10.37,2013-11-08 04:13:00,
2013-11-07 23:18:00,39.2,29.9,30.09,WSW,248,4.8,8.1,69,0.00,BKN,,0.65,WeatherDisplay:10.37,2013-11-08 04:18:00,
2013-11-07 23:23:00,39.2,30.3,30.09,SW,225,2.5,3.6,70,0.00,BKN,,0.65,WeatherDisplay:10.37,2013-11-08 04:23:00,
2013-11-07 23:28:00,39.0,30.1,30.09,SSW,202,0.9,3.5,70,0.00,BKN,,0.65,WeatherDisplay:10.37,2013-11-08 04:28:00,
2013-11-07 23:33:00,39.0,30.1,30.09,SE,135,2.9,4.6,70,0.00,BKN,,0.65,WeatherDisplay:10.37,2013-11-08 04:33:00,
2013-11-07 23:38:00,39.0,30.1,30.09,NNW,338,1.7,6.9,70,0.00,BKN,,0.65,WeatherDisplay:10.37,2013-11-08 04:38:00,
2013-11-07 23:43:00,39.0,30.1,30.09,WSW,248,6.3,8.7,70,0.00,BKN,,0.65,WeatherDisplay:10.37,2013-11-08 04:43:00,
2013-11-07 23:48:00,39.0,30.1,30.09,WNW,292,5.8,8.1,70,0.00,BKN,,0.65,WeatherDisplay:10.37,2013-11-08 04:48:00,
2013-11-07 23:54:00,39.0,30.1,30.08,SE,135,4.0,6.1,70,0.00,BKN,,0.65,WeatherDisplay:10.37,2013-11-08 04:54:00,
2013-11-07 23:59:00,38.8,30.2,30.08,WSW,248,3.9,5.3,71,0.00,BKN,,0.65,WeatherDisplay:10.37,2013-11-08 04:59:00,